iso_date,epoch_date,Year,Hour,Min,DOY,POS_DOY,Lat,Lon,BP,Ts,Ta,has_bp,has_ts,has_ta,BuoyID,Buoy_Type,Buoy_Owner,Logistics,Hemisphere
2011-06-08T00:00:00Z,1307491200,2011,0,0,159.0,159.0,83.55546,-52.902,1026.1,-999.00,-0.1,yes,no,yes,300234010118300,unknown,unknown,unknown,North
2011-06-08T01:00:28Z,1307494829,2011,1,0,159.042,159.042,83.55546,-52.902,1026.1,-999.00,-0.1,yes,no,yes,300234010118300,unknown,unknown,unknown,North
2011-06-08T01:59:31Z,1307498371,2011,2,0,159.083,159.083,83.55546,-52.902,1026.3,-999.00,-0.1,yes,no,yes,300234010118300,unknown,unknown,unknown,North
2011-06-08T03:00:00Z,1307502000,2011,3,0,159.125,159.125,83.55204,-52.90092,1026.2,-999.00,-0.1,yes,no,yes,300234010118300,unknown,unknown,unknown,North
2011-06-08T04:00:28Z,1307505629,2011,4,0,159.167,159.167,83.55204,-52.90092,1026.3,-999.00,-0.2,yes,no,yes,300234010118300,unknown,unknown,unknown,North
2011-06-08T04:59:31Z,1307509171,2011,5,0,159.208,159.208,83.55204,-52.90092,1026.3,-999.00,-0.2,yes,no,yes,300234010118300,unknown,unknown,unknown,North
2011-06-08T06:00:00Z,1307512800,2011,6,0,159.25,159.25,83.54988,-52.90542,1026.2,-999.00,-0.2,yes,no,yes,300234010118300,unknown,unknown,unknown,North
2011-06-08T07:00:28Z,1307516429,2011,7,0,159.292,159.292,83.54988,-52.90542,1026.4,-999.00,-0.2,yes,no,yes,300234010118300,unknown,unknown,unknown,North
2011-06-08T07:59:31Z,1307519971,2011,8,0,159.333,159.333,83.54988,-52.90542,1026.5,-999.00,-0.2,yes,no,yes,300234010118300,unknown,unknown,unknown,North
2011-06-08T09:00:00Z,1307523600,2011,9,0,159.375,159.375,83.55006,-52.90416,1026.4,-999.00,-0.2,yes,no,yes,300234010118300,unknown,unknown,unknown,North
2011-06-08T10:00:28Z,1307527229,2011,10,0,159.417,159.417,83.55006,-52.90416,1026.5,-999.00,-0.2,yes,no,yes,300234010118300,unknown,unknown,unknown,North
2011-06-08T10:59:31Z,1307530771,2011,11,0,159.458,159.458,83.55006,-52.90416,1026.6,-999.00,-0.2,yes,no,yes,300234010118300,unknown,unknown,unknown,North
2011-06-08T12:00:00Z,1307534400,2011,12,0,159.5,159.5,83.55006,-52.90236,1026.6,-999.00,-0.2,yes,no,yes,300234010118300,unknown,unknown,unknown,North
2011-06-08T13:00:28Z,1307538029,2011,13,0,159.542,159.542,83.55006,-52.90236,1026.6,-999.00,-0.1,yes,no,yes,300234010118300,unknown,unknown,unknown,North
2011-06-08T13:59:31Z,1307541571,2011,14,0,159.583,159.583,83.55006,-52.90236,1026.7,-999.00,0.1,yes,no,yes,300234010118300,unknown,unknown,unknown,North
2011-06-08T15:00:00Z,1307545200,2011,15,0,159.625,159.625,83.55006,-52.90254,1026.5,-999.00,0.1,yes,no,yes,300234010118300,unknown,unknown,unknown,North
2011-06-08T16:00:28Z,1307548829,2011,16,0,159.667,159.667,83.55006,-52.90254,1026.4,-999.00,0.0,yes,no,yes,300234010118300,unknown,unknown,unknown,North
2011-06-08T16:59:31Z,1307552371,2011,17,0,159.708,159.708,83.55006,-52.90254,1026.6,-999.00,-0.6,yes,no,yes,300234010118300,unknown,unknown,unknown,North
2011-06-08T18:00:00Z,1307556000,2011,18,0,159.75,159.75,83.54754,-52.8957,1026.7,-999.00,-0.5,yes,no,yes,300234010118300,unknown,unknown,unknown,North
2011-06-08T19:00:28Z,1307559629,2011,19,0,159.792,159.792,83.54754,-52.8957,1026.8,-999.00,-0.7,yes,no,yes,300234010118300,unknown,unknown,unknown,North
2011-06-08T19:59:31Z,1307563171,2011,20,0,159.833,159.833,83.54754,-52.8957,1026.9,-999.00,-1.1,yes,no,yes,300234010118300,unknown,unknown,unknown,North
2011-06-08T21:00:00Z,1307566800,2011,21,0,159.875,159.875,83.54484,-52.89498,1027.2,-999.00,-1.1,yes,no,yes,300234010118300,unknown,unknown,unknown,North
2011-06-08T22:00:28Z,1307570429,2011,22,0,159.917,159.917,83.54484,-52.89498,1027.5,-999.00,-0.5,yes,no,yes,300234010118300,unknown,unknown,unknown,North
2011-06-08T22:59:31Z,1307573971,2011,23,0,159.958,159.958,83.54484,-52.89498,1027.5,-999.00,-1.2,yes,no,yes,300234010118300,unknown,unknown,unknown,North
2011-06-09T00:00:00Z,1307577600,2011,0,0,160.0,160.0,83.54484,-52.8957,1027.7,-999.00,-1.1,yes,no,yes,300234010118300,unknown,unknown,unknown,North
2011-06-09T01:00:28Z,1307581229,2011,1,0,160.042,160.042,83.54484,-52.8957,1027.7,-999.00,-1.3,yes,no,yes,300234010118300,unknown,unknown,unknown,North
2011-06-09T01:59:31Z,1307584771,2011,2,0,160.083,160.083,83.54484,-52.8957,1028.0,-999.00,-1.7,yes,no,yes,300234010118300,unknown,unknown,unknown,North
2011-06-09T03:00:00Z,1307588400,2011,3,0,160.125,160.125,83.54448,-52.89696,1028.1,-999.00,-2.0,yes,no,yes,300234010118300,unknown,unknown,unknown,North
2011-06-09T04:00:28Z,1307592029,2011,4,0,160.167,160.167,83.54448,-52.89696,1028.1,-999.00,-2.1,yes,no,yes,300234010118300,unknown,unknown,unknown,North
2011-06-09T04:59:31Z,1307595571,2011,5,0,160.208,160.208,83.54448,-52.89696,1028.3,-999.00,-1.9,yes,no,yes,300234010118300,unknown,unknown,unknown,North
2011-06-09T06:00:00Z,1307599200,2011,6,0,160.25,160.25,83.54394,-52.9011,1028.5,-999.00,-2.1,yes,no,yes,300234010118300,unknown,unknown,unknown,North
2011-06-09T07:00:28Z,1307602829,2011,7,0,160.292,160.292,83.54394,-52.9011,1028.7,-999.00,-2.4,yes,no,yes,300234010118300,unknown,unknown,unknown,North
2011-06-09T07:59:31Z,1307606371,2011,8,0,160.333,160.333,83.54394,-52.9011,1028.8,-999.00,-2.2,yes,no,yes,300234010118300,unknown,unknown,unknown,North
2011-06-09T09:00:00Z,1307610000,2011,9,0,160.375,160.375,83.54376,-52.90272,1028.9,-999.00,-2.6,yes,no,yes,300234010118300,unknown,unknown,unknown,North
2011-06-09T10:00:28Z,1307613629,2011,10,0,160.417,160.417,83.54376,-52.90272,1029.2,-999.00,-2.7,yes,no,yes,300234010118300,unknown,unknown,unknown,North
2011-06-09T10:59:31Z,1307617171,2011,11,0,160.458,160.458,83.54376,-52.90272,1029.5,-999.00,-2.9,yes,no,yes,300234010118300,unknown,unknown,unknown,North
2011-06-09T12:00:00Z,1307620800,2011,12,0,160.5,160.5,83.54322,-52.90758,1029.6,-999.00,-3.2,yes,no,yes,300234010118300,unknown,unknown,unknown,North
2011-06-09T13:00:28Z,1307624429,2011,13,0,160.542,160.542,83.54322,-52.90758,1029.4,-999.00,-2.7,yes,no,yes,300234010118300,unknown,unknown,unknown,North
2011-06-09T13:59:31Z,1307627971,2011,14,0,160.583,160.583,83.54322,-52.90758,1029.6,-999.00,-2.5,yes,no,yes,300234010118300,unknown,unknown,unknown,North
2011-06-09T15:00:00Z,1307631600,2011,15,0,160.625,160.625,83.54268,-52.91856,1029.7,-999.00,-1.9,yes,no,yes,300234010118300,unknown,unknown,unknown,North
2011-06-09T16:00:28Z,1307635229,2011,16,0,160.667,160.667,83.54268,-52.91856,1029.6,-999.00,-1.9,yes,no,yes,300234010118300,unknown,unknown,unknown,North
2011-06-09T16:59:31Z,1307638771,2011,17,0,160.708,160.708,83.54268,-52.91856,1029.4,-999.00,-1.5,yes,no,yes,300234010118300,unknown,unknown,unknown,North
2011-06-09T18:00:00Z,1307642400,2011,18,0,160.75,160.75,83.54124,-52.94124,1029.5,-999.00,-1.6,yes,no,yes,300234010118300,unknown,unknown,unknown,North
2011-06-09T19:00:28Z,1307646029,2011,19,0,160.792,160.792,83.54124,-52.94124,1029.6,-999.00,-1.6,yes,no,yes,300234010118300,unknown,unknown,unknown,North
2011-06-09T19:59:31Z,1307649571,2011,20,0,160.833,160.833,83.54124,-52.94124,1029.7,-999.00,-1.6,yes,no,yes,300234010118300,unknown,unknown,unknown,North
2011-06-09T21:00:00Z,1307653200,2011,21,0,160.875,160.875,83.53962,-52.98642,1029.9,-999.00,-1.4,yes,no,yes,300234010118300,unknown,unknown,unknown,North
2011-06-09T22:00:28Z,1307656829,2011,22,0,160.917,160.917,83.53962,-52.98642,1029.8,-999.00,-1.7,yes,no,yes,300234010118300,unknown,unknown,unknown,North
2011-06-09T22:59:31Z,1307660371,2011,23,0,160.958,160.958,83.53962,-52.98642,1029.9,-999.00,-1.7,yes,no,yes,300234010118300,unknown,unknown,unknown,North
2011-06-10T00:00:00Z,1307664000,2011,0,0,161.0,161.0,83.53836,-53.04258,1030.0,-999.00,-2.5,yes,no,yes,300234010118300,unknown,unknown,unknown,North
2011-06-10T01:00:28Z,1307667629,2011,1,0,161.042,161.042,83.53836,-53.04258,1030.1,-999.00,-2.7,yes,no,yes,300234010118300,unknown,unknown,unknown,North
2011-06-10T01:59:31Z,1307671171,2011,2,0,161.083,161.083,83.53836,-53.04258,1029.9,-999.00,-2.8,yes,no,yes,300234010118300,unknown,unknown,unknown,North
2011-06-10T03:00:00Z,1307674800,2011,3,0,161.125,161.125,83.53818,-53.09748,1030.0,-999.00,-3.1,yes,no,yes,300234010118300,unknown,unknown,unknown,North
2011-06-10T04:00:28Z,1307678429,2011,4,0,161.167,161.167,83.53818,-53.09748,1029.6,-999.00,-3.1,yes,no,yes,300234010118300,unknown,unknown,unknown,North
2011-06-10T04:59:31Z,1307681971,2011,5,0,161.208,161.208,83.53818,-53.09748,1029.7,-999.00,-3.1,yes,no,yes,300234010118300,unknown,unknown,unknown,North
2011-06-10T06:00:00Z,1307685600,2011,6,0,161.25,161.25,83.53746,-53.14536,1029.6,-999.00,-3.3,yes,no,yes,300234010118300,unknown,unknown,unknown,North
2011-06-10T07:00:28Z,1307689229,2011,7,0,161.292,161.292,83.53746,-53.14536,1029.7,-999.00,-3.1,yes,no,yes,300234010118300,unknown,unknown,unknown,North
2011-06-10T07:59:31Z,1307692771,2011,8,0,161.333,161.333,83.53746,-53.14536,1029.5,-999.00,-2.9,yes,no,yes,300234010118300,unknown,unknown,unknown,North
2011-06-10T09:00:00Z,1307696400,2011,9,0,161.375,161.375,83.5353,-53.17038,1029.6,-999.00,-2.6,yes,no,yes,300234010118300,unknown,unknown,unknown,North
2011-06-10T10:00:28Z,1307700029,2011,10,0,161.417,161.417,83.5353,-53.17038,1029.6,-999.00,-2.3,yes,no,yes,300234010118300,unknown,unknown,unknown,North
2011-06-10T10:59:31Z,1307703571,2011,11,0,161.458,161.458,83.5353,-53.17038,1029.6,-999.00,-1.9,yes,no,yes,300234010118300,unknown,unknown,unknown,North
2011-06-10T12:00:00Z,1307707200,2011,12,0,161.5,161.5,83.5344,-53.20008,1029.3,-999.00,-1.9,yes,no,yes,300234010118300,unknown,unknown,unknown,North
2011-06-10T13:00:28Z,1307710829,2011,13,0,161.542,161.542,83.5344,-53.20008,1029.2,-999.00,-1.7,yes,no,yes,300234010118300,unknown,unknown,unknown,North
2011-06-10T13:59:31Z,1307714371,2011,14,0,161.583,161.583,83.5344,-53.20008,1029.1,-999.00,-1.2,yes,no,yes,300234010118300,unknown,unknown,unknown,North
2011-06-10T15:00:00Z,1307718000,2011,15,0,161.625,161.625,83.5344,-53.2359,1029.1,-999.00,-0.9,yes,no,yes,300234010118300,unknown,unknown,unknown,North
2011-06-10T16:00:28Z,1307721629,2011,16,0,161.667,161.667,83.5344,-53.2359,1029.0,-999.00,-1.1,yes,no,yes,300234010118300,unknown,unknown,unknown,North
2011-06-10T16:59:31Z,1307725171,2011,17,0,161.708,161.708,83.5344,-53.2359,1028.8,-999.00,-1.3,yes,no,yes,300234010118300,unknown,unknown,unknown,North
2011-06-10T18:00:00Z,1307728800,2011,18,0,161.75,161.75,83.53314,-53.271,1028.4,-999.00,-1.0,yes,no,yes,300234010118300,unknown,unknown,unknown,North
2011-06-10T19:00:28Z,1307732429,2011,19,0,161.792,161.792,83.53314,-53.271,1028.3,-999.00,-0.8,yes,no,yes,300234010118300,unknown,unknown,unknown,North
2011-06-10T19:59:31Z,1307735971,2011,20,0,161.833,161.833,83.53314,-53.271,1028.2,-999.00,-0.2,yes,no,yes,300234010118300,unknown,unknown,unknown,North
2011-06-10T21:00:00Z,1307739600,2011,21,0,161.875,161.875,83.52936,-53.3106,1028.0,-999.00,-0.1,yes,no,yes,300234010118300,unknown,unknown,unknown,North
2011-06-10T22:00:28Z,1307743229,2011,22,0,161.917,161.917,83.52936,-53.3106,1027.9,-999.00,-0.2,yes,no,yes,300234010118300,unknown,unknown,unknown,North
2011-06-10T22:59:31Z,1307746771,2011,23,0,161.958,161.958,83.52936,-53.3106,1027.9,-999.00,-0.3,yes,no,yes,300234010118300,unknown,unknown,unknown,North
2011-06-11T00:00:00Z,1307750400,2011,0,0,162.0,162.0,83.52648,-53.34678,1027.8,-999.00,-0.4,yes,no,yes,300234010118300,unknown,unknown,unknown,North
2011-06-11T01:00:28Z,1307754029,2011,1,0,162.042,162.042,83.52648,-53.34678,1027.9,-999.00,-0.5,yes,no,yes,300234010118300,unknown,unknown,unknown,North
2011-06-11T01:59:31Z,1307757571,2011,2,0,162.083,162.083,83.52648,-53.34678,1027.7,-999.00,-0.7,yes,no,yes,300234010118300,unknown,unknown,unknown,North
2011-06-11T03:00:00Z,1307761200,2011,3,0,162.125,162.125,83.5263,-53.35398,1027.4,-999.00,-0.8,yes,no,yes,300234010118300,unknown,unknown,unknown,North
2011-06-11T04:00:28Z,1307764829,2011,4,0,162.167,162.167,83.5263,-53.35398,1027.1,-999.00,-0.9,yes,no,yes,300234010118300,unknown,unknown,unknown,North
2011-06-11T04:59:31Z,1307768371,2011,5,0,162.208,162.208,83.5263,-53.35398,1027.0,-999.00,-0.7,yes,no,yes,300234010118300,unknown,unknown,unknown,North
2011-06-11T06:00:00Z,1307772000,2011,6,0,162.25,162.25,83.52594,-53.35542,1026.9,-999.00,-0.6,yes,no,yes,300234010118300,unknown,unknown,unknown,North
2011-06-11T07:00:28Z,1307775629,2011,7,0,162.292,162.292,83.52594,-53.35542,1026.9,-999.00,-0.6,yes,no,yes,300234010118300,unknown,unknown,unknown,North
2011-06-11T07:59:31Z,1307779171,2011,8,0,162.333,162.333,83.52594,-53.35542,1026.9,-999.00,-0.5,yes,no,yes,300234010118300,unknown,unknown,unknown,North
2011-06-11T09:00:00Z,1307782800,2011,9,0,162.375,162.375,83.52576,-53.35542,1026.8,-999.00,-0.2,yes,no,yes,300234010118300,unknown,unknown,unknown,North
2011-06-11T10:00:28Z,1307786429,2011,10,0,162.417,162.417,83.52576,-53.35542,1026.8,-999.00,0.0,yes,no,yes,300234010118300,unknown,unknown,unknown,North
2011-06-11T10:59:31Z,1307789971,2011,11,0,162.458,162.458,83.52576,-53.35542,1026.7,-999.00,0.4,yes,no,yes,300234010118300,unknown,unknown,unknown,North
2011-06-11T12:00:00Z,1307793600,2011,12,0,162.5,162.5,83.52558,-53.3556,1026.3,-999.00,0.5,yes,no,yes,300234010118300,unknown,unknown,unknown,North
2011-06-11T13:00:28Z,1307797229,2011,13,0,162.542,162.542,83.52558,-53.3556,1026.1,-999.00,0.8,yes,no,yes,300234010118300,unknown,unknown,unknown,North
2011-06-11T13:59:31Z,1307800771,2011,14,0,162.583,162.583,83.52558,-53.3556,1025.6,-999.00,1.0,yes,no,yes,300234010118300,unknown,unknown,unknown,North
2011-06-11T15:00:00Z,1307804400,2011,15,0,162.625,162.625,83.52558,-53.35596,1025.5,-999.00,1.3,yes,no,yes,300234010118300,unknown,unknown,unknown,North
2011-06-11T16:00:28Z,1307808029,2011,16,0,162.667,162.667,83.52558,-53.35596,1025.2,-999.00,1.6,yes,no,yes,300234010118300,unknown,unknown,unknown,North
2011-06-11T16:59:31Z,1307811571,2011,17,0,162.708,162.708,83.52558,-53.35596,1024.8,-999.00,1.5,yes,no,yes,300234010118300,unknown,unknown,unknown,North
2011-06-11T18:00:00Z,1307815200,2011,18,0,162.75,162.75,83.5254,-53.35686,1024.4,-999.00,1.5,yes,no,yes,300234010118300,unknown,unknown,unknown,North
2011-06-11T19:00:28Z,1307818829,2011,19,0,162.792,162.792,83.5254,-53.35686,1024.1,-999.00,1.6,yes,no,yes,300234010118300,unknown,unknown,unknown,North
2011-06-11T19:59:31Z,1307822371,2011,20,0,162.833,162.833,83.5254,-53.35686,1023.9,-999.00,1.7,yes,no,yes,300234010118300,unknown,unknown,unknown,North
2011-06-11T21:00:00Z,1307826000,2011,21,0,162.875,162.875,83.52342,-53.36622,1023.7,-999.00,1.6,yes,no,yes,300234010118300,unknown,unknown,unknown,North
2011-06-11T22:00:28Z,1307829629,2011,22,0,162.917,162.917,83.52342,-53.36622,1023.4,-999.00,1.6,yes,no,yes,300234010118300,unknown,unknown,unknown,North
2011-06-11T22:59:31Z,1307833171,2011,23,0,162.958,162.958,83.52342,-53.36622,1023.1,-999.00,1.4,yes,no,yes,300234010118300,unknown,unknown,unknown,North
2011-06-12T00:00:00Z,1307836800,2011,0,0,163.0,163.0,83.52162,-53.37648,1022.8,-999.00,1.3,yes,no,yes,300234010118300,unknown,unknown,unknown,North
2011-06-12T01:00:28Z,1307840429,2011,1,0,163.042,163.042,83.52162,-53.37648,1022.5,-999.00,1.2,yes,no,yes,300234010118300,unknown,unknown,unknown,North
2011-06-12T01:59:31Z,1307843971,2011,2,0,163.083,163.083,83.52162,-53.37648,1022.3,-999.00,1.0,yes,no,yes,300234010118300,unknown,unknown,unknown,North
2011-06-12T03:00:00Z,1307847600,2011,3,0,163.125,163.125,83.5218,-53.37756,1022.0,-999.00,0.9,yes,no,yes,300234010118300,unknown,unknown,unknown,North
2011-06-12T04:00:28Z,1307851229,2011,4,0,163.167,163.167,83.5218,-53.37756,1021.9,-999.00,0.9,yes,no,yes,300234010118300,unknown,unknown,unknown,North
2011-06-12T04:59:31Z,1307854771,2011,5,0,163.208,163.208,83.5218,-53.37756,1021.8,-999.00,1.0,yes,no,yes,300234010118300,unknown,unknown,unknown,North
2011-06-12T06:00:00Z,1307858400,2011,6,0,163.25,163.25,83.5227,-53.38044,1021.7,-999.00,0.9,yes,no,yes,300234010118300,unknown,unknown,unknown,North
2011-06-12T07:00:28Z,1307862029,2011,7,0,163.292,163.292,83.5227,-53.38044,1021.8,-999.00,1.2,yes,no,yes,300234010118300,unknown,unknown,unknown,North
2011-06-12T07:59:31Z,1307865571,2011,8,0,163.333,163.333,83.5227,-53.38044,1022.1,-999.00,1.1,yes,no,yes,300234010118300,unknown,unknown,unknown,North
2011-06-12T09:00:00Z,1307869200,2011,9,0,163.375,163.375,83.52234,-53.38098,1022.2,-999.00,1.1,yes,no,yes,300234010118300,unknown,unknown,unknown,North
2011-06-12T10:00:28Z,1307872829,2011,10,0,163.417,163.417,83.52234,-53.38098,1022.4,-999.00,1.6,yes,no,yes,300234010118300,unknown,unknown,unknown,North
2011-06-12T10:59:31Z,1307876371,2011,11,0,163.458,163.458,83.52234,-53.38098,1022.5,-999.00,2.1,yes,no,yes,300234010118300,unknown,unknown,unknown,North
2011-06-12T12:00:00Z,1307880000,2011,12,0,163.5,163.5,83.52252,-53.3808,1022.6,-999.00,2.6,yes,no,yes,300234010118300,unknown,unknown,unknown,North
2011-06-12T13:00:28Z,1307883629,2011,13,0,163.542,163.542,83.52252,-53.3808,1022.8,-999.00,2.6,yes,no,yes,300234010118300,unknown,unknown,unknown,North
2011-06-12T13:59:31Z,1307887171,2011,14,0,163.583,163.583,83.52252,-53.3808,1023.0,-999.00,3.2,yes,no,yes,300234010118300,unknown,unknown,unknown,North
2011-06-12T15:00:00Z,1307890800,2011,15,0,163.625,163.625,83.52558,-53.37738,1023.4,-999.00,3.4,yes,no,yes,300234010118300,unknown,unknown,unknown,North
2011-06-12T16:00:28Z,1307894429,2011,16,0,163.667,163.667,83.52558,-53.37738,1023.6,-999.00,3.6,yes,no,yes,300234010118300,unknown,unknown,unknown,North
2011-06-12T16:59:31Z,1307897971,2011,17,0,163.708,163.708,83.52558,-53.37738,1023.6,-999.00,3.2,yes,no,yes,300234010118300,unknown,unknown,unknown,North
2011-06-12T18:00:00Z,1307901600,2011,18,0,163.75,163.75,83.5299,-53.35974,1024.0,-999.00,2.8,yes,no,yes,300234010118300,unknown,unknown,unknown,North
2011-06-12T19:00:28Z,1307905229,2011,19,0,163.792,163.792,83.5299,-53.35974,1024.2,-999.00,3.0,yes,no,yes,300234010118300,unknown,unknown,unknown,North
2011-06-12T19:59:31Z,1307908771,2011,20,0,163.833,163.833,83.5299,-53.35974,1024.2,-999.00,2.8,yes,no,yes,300234010118300,unknown,unknown,unknown,North
2011-06-12T21:00:00Z,1307912400,2011,21,0,163.875,163.875,83.5299,-53.36208,1024.2,-999.00,2.9,yes,no,yes,300234010118300,unknown,unknown,unknown,North
2011-06-12T22:00:28Z,1307916029,2011,22,0,163.917,163.917,83.5299,-53.36208,1024.2,-999.00,2.6,yes,no,yes,300234010118300,unknown,unknown,unknown,North
2011-06-12T22:59:31Z,1307919571,2011,23,0,163.958,163.958,83.5299,-53.36208,1024.3,-999.00,2.9,yes,no,yes,300234010118300,unknown,unknown,unknown,North
2011-06-13T00:00:00Z,1307923200,2011,0,0,164.0,164.0,83.529,-53.38278,1024.6,-999.00,3.0,yes,no,yes,300234010118300,unknown,unknown,unknown,North
2011-06-13T01:00:28Z,1307926829,2011,1,0,164.042,164.042,83.529,-53.38278,1024.7,-999.00,2.6,yes,no,yes,300234010118300,unknown,unknown,unknown,North
2011-06-13T01:59:31Z,1307930371,2011,2,0,164.083,164.083,83.529,-53.38278,1024.7,-999.00,2.6,yes,no,yes,300234010118300,unknown,unknown,unknown,North
2011-06-13T03:00:00Z,1307934000,2011,3,0,164.125,164.125,83.53188,-53.38836,1025.1,-999.00,1.9,yes,no,yes,300234010118300,unknown,unknown,unknown,North
2011-06-13T04:00:28Z,1307937629,2011,4,0,164.167,164.167,83.53188,-53.38836,1025.1,-999.00,1.7,yes,no,yes,300234010118300,unknown,unknown,unknown,North
2011-06-13T04:59:31Z,1307941171,2011,5,0,164.208,164.208,83.53188,-53.38836,1025.0,-999.00,1.8,yes,no,yes,300234010118300,unknown,unknown,unknown,North
2011-06-13T06:00:00Z,1307944800,2011,6,0,164.25,164.25,83.53458,-53.38332,1025.1,-999.00,2.2,yes,no,yes,300234010118300,unknown,unknown,unknown,North
2011-06-13T07:00:28Z,1307948429,2011,7,0,164.292,164.292,83.53458,-53.38332,1025.3,-999.00,2.2,yes,no,yes,300234010118300,unknown,unknown,unknown,North
2011-06-13T07:59:31Z,1307951971,2011,8,0,164.333,164.333,83.53458,-53.38332,1025.5,-999.00,2.2,yes,no,yes,300234010118300,unknown,unknown,unknown,North
2011-06-13T09:00:00Z,1307955600,2011,9,0,164.375,164.375,83.53512,-53.3853,1025.6,-999.00,2.7,yes,no,yes,300234010118300,unknown,unknown,unknown,North
2011-06-13T10:00:28Z,1307959229,2011,10,0,164.417,164.417,83.53512,-53.3853,1025.6,-999.00,2.8,yes,no,yes,300234010118300,unknown,unknown,unknown,North
2011-06-13T10:59:31Z,1307962771,2011,11,0,164.458,164.458,83.53512,-53.3853,1025.6,-999.00,2.9,yes,no,yes,300234010118300,unknown,unknown,unknown,North
2011-06-13T12:00:00Z,1307966400,2011,12,0,164.5,164.5,83.53404,-53.38458,1025.8,-999.00,3.0,yes,no,yes,300234010118300,unknown,unknown,unknown,North
2011-06-13T13:00:28Z,1307970029,2011,13,0,164.542,164.542,83.53404,-53.38458,1025.8,-999.00,3.3,yes,no,yes,300234010118300,unknown,unknown,unknown,North
2011-06-13T13:59:31Z,1307973571,2011,14,0,164.583,164.583,83.53404,-53.38458,1025.9,-999.00,3.2,yes,no,yes,300234010118300,unknown,unknown,unknown,North
2011-06-13T15:00:00Z,1307977200,2011,15,0,164.625,164.625,83.53278,-53.3817,1025.8,-999.00,3.2,yes,no,yes,300234010118300,unknown,unknown,unknown,North
2011-06-13T16:00:28Z,1307980829,2011,16,0,164.667,164.667,83.53278,-53.3817,1025.6,-999.00,3.4,yes,no,yes,300234010118300,unknown,unknown,unknown,North
2011-06-13T16:59:31Z,1307984371,2011,17,0,164.708,164.708,83.53278,-53.3817,1025.7,-999.00,3.0,yes,no,yes,300234010118300,unknown,unknown,unknown,North
2011-06-13T18:00:00Z,1307988000,2011,18,0,164.75,164.75,83.53152,-53.38116,1025.7,-999.00,2.9,yes,no,yes,300234010118300,unknown,unknown,unknown,North
2011-06-13T19:00:28Z,1307991629,2011,19,0,164.792,164.792,83.53152,-53.38116,1025.6,-999.00,2.9,yes,no,yes,300234010118300,unknown,unknown,unknown,North
2011-06-13T19:59:31Z,1307995171,2011,20,0,164.833,164.833,83.53152,-53.38116,1025.6,-999.00,3.9,yes,no,yes,300234010118300,unknown,unknown,unknown,North
2011-06-13T21:00:00Z,1307998800,2011,21,0,164.875,164.875,83.52882,-53.38584,1025.5,-999.00,2.5,yes,no,yes,300234010118300,unknown,unknown,unknown,North
2011-06-13T22:00:28Z,1308002429,2011,22,0,164.917,164.917,83.52882,-53.38584,1025.4,-999.00,4.4,yes,no,yes,300234010118300,unknown,unknown,unknown,North
2011-06-13T22:59:31Z,1308005971,2011,23,0,164.958,164.958,83.52882,-53.38584,1025.3,-999.00,2.1,yes,no,yes,300234010118300,unknown,unknown,unknown,North
2011-06-14T00:00:00Z,1308009600,2011,0,0,165.0,165.0,83.52342,-53.39448,1025.2,-999.00,2.8,yes,no,yes,300234010118300,unknown,unknown,unknown,North
2011-06-14T01:00:28Z,1308013229,2011,1,0,165.042,165.042,83.52342,-53.39448,1025.0,-999.00,2.0,yes,no,yes,300234010118300,unknown,unknown,unknown,North
2011-06-14T01:59:31Z,1308016771,2011,2,0,165.083,165.083,83.52342,-53.39448,1025.0,-999.00,2.2,yes,no,yes,300234010118300,unknown,unknown,unknown,North
2011-06-14T03:00:00Z,1308020400,2011,3,0,165.125,165.125,83.5218,-53.39322,1025.0,-999.00,1.4,yes,no,yes,300234010118300,unknown,unknown,unknown,North
2011-06-14T04:00:28Z,1308024029,2011,4,0,165.167,165.167,83.5218,-53.39322,1024.8,-999.00,1.4,yes,no,yes,300234010118300,unknown,unknown,unknown,North
2011-06-14T04:59:31Z,1308027571,2011,5,0,165.208,165.208,83.5218,-53.39322,1024.6,-999.00,1.5,yes,no,yes,300234010118300,unknown,unknown,unknown,North
2011-06-14T06:00:00Z,1308031200,2011,6,0,165.25,165.25,83.52306,-53.38764,1024.6,-999.00,1.1,yes,no,yes,300234010118300,unknown,unknown,unknown,North
2011-06-14T07:00:28Z,1308034829,2011,7,0,165.292,165.292,83.52306,-53.38764,1024.6,-999.00,1.1,yes,no,yes,300234010118300,unknown,unknown,unknown,North
2011-06-14T07:59:31Z,1308038371,2011,8,0,165.333,165.333,83.52306,-53.38764,1024.5,-999.00,1.3,yes,no,yes,300234010118300,unknown,unknown,unknown,North
2011-06-14T09:00:00Z,1308042000,2011,9,0,165.375,165.375,83.5227,-53.38656,1024.7,-999.00,1.5,yes,no,yes,300234010118300,unknown,unknown,unknown,North
2011-06-14T10:00:28Z,1308045629,2011,10,0,165.417,165.417,83.5227,-53.38656,1024.6,-999.00,1.4,yes,no,yes,300234010118300,unknown,unknown,unknown,North
2011-06-14T10:59:31Z,1308049171,2011,11,0,165.458,165.458,83.5227,-53.38656,1024.5,-999.00,2.1,yes,no,yes,300234010118300,unknown,unknown,unknown,North